TimeEDT,TemperatureF,Dew PointF,Humidity,Sea Level PressureIn,VisibilityMPH,Wind Direction,Wind SpeedMPH,Gust SpeedMPH,PrecipitationIn,Events,Conditions,WindDirDegrees,DateUTC
12:53 AM,63.0,55.0,75,30.12,10.0,SSW,4.6,-,N/A,,Clear,210,2013-08-19 04:53:00
1:53 AM,61.0,54.0,78,30.12,10.0,West,5.8,-,N/A,,Clear,260,2013-08-19 05:53:00
2:53 AM,62.1,54.0,75,30.11,10.0,SW,3.5,-,N/A,,Clear,220,2013-08-19 06:53:00
3:53 AM,57.9,53.1,84,30.11,10.0,SW,3.5,-,N/A,,Clear,230,2013-08-19 07:53:00
4:53 AM,57.0,52.0,83,30.11,10.0,Calm,Calm,-,N/A,,Clear,0,2013-08-19 08:53:00
5:53 AM,57.0,54.0,89,30.12,10.0,SW,5.8,-,N/A,,Clear,220,2013-08-19 09:53:00
6:53 AM,55.9,53.1,90,30.12,8.0,WSW,4.6,-,N/A,,Clear,250,2013-08-19 10:53:00
7:53 AM,59.0,55.0,87,30.13,10.0,Calm,Calm,-,N/A,,Clear,0,2013-08-19 11:53:00
8:53 AM,64.9,57.0,75,30.12,10.0,Calm,Calm,-,N/A,,Clear,0,2013-08-19 12:53:00
9:53 AM,71.1,57.9,63,30.12,10.0,SW,4.6,-,N/A,,Clear,230,2013-08-19 13:53:00
10:53 AM,75.0,57.0,53,30.11,10.0,Variable,3.5,-,N/A,,Clear,0,2013-08-19 14:53:00
11:53 AM,75.9,57.0,52,30.12,10.0,Variable,6.9,-,N/A,,Clear,0,2013-08-19 15:53:00
12:53 PM,79.0,55.0,44,30.11,10.0,WNW,9.2,-,N/A,,Clear,300,2013-08-19 16:53:00
1:53 PM,81.0,55.0,41,30.08,10.0,WNW,8.1,-,N/A,,Clear,300,2013-08-19 17:53:00
2:53 PM,82.0,55.9,41,30.07,10.0,West,8.1,18.4,N/A,,Clear,280,2013-08-19 18:53:00
3:53 PM,84.0,54.0,35,30.05,10.0,SW,13.8,-,N/A,,Clear,230,2013-08-19 19:53:00
4:53 PM,84.0,55.0,37,30.03,10.0,SW,9.2,-,N/A,,Clear,220,2013-08-19 20:53:00
5:53 PM,82.9,54.0,37,30.04,10.0,WSW,13.8,18.4,N/A,,Clear,240,2013-08-19 21:53:00
6:53 PM,82.0,55.0,39,30.03,10.0,SW,10.4,-,N/A,,Clear,230,2013-08-19 22:53:00
7:53 PM,78.1,57.0,48,30.03,10.0,SW,6.9,-,N/A,,Clear,230,2013-08-19 23:53:00
8:53 PM,73.0,57.9,59,30.03,10.0,SW,4.6,-,N/A,,Clear,220,2013-08-20 00:53:00
9:53 PM,70.0,57.9,65,30.05,10.0,WSW,4.6,-,N/A,,Clear,240,2013-08-20 01:53:00
10:53 PM,66.9,57.9,73,30.05,10.0,SW,4.6,-,N/A,,Clear,230,2013-08-20 02:53:00
11:53 PM,66.9,57.0,70,30.06,10.0,WSW,5.8,-,N/A,,Clear,240,2013-08-20 03:53:00